[[{"header":{"parameterUnit":"m.s-1","parameterCategory":1,"la1":30.2991,"la2":30.254,"lo1":-89.0895,"lo2":-89.0444,"dy":0.0017,"dx":0.0017,"nx":28,"ny":28,"refTime":"2023-08-02T03:00:00:Z","depth":0,"parameterNumber":2,"parameterNumberName":"U-component_of_WINDS"},"data":[0,0,0,0,0,0,0,0,0,0,0,0,0,0,0,0,0,0,0,0,0,0,0,0,0,0,0,0,0,0,0,0,0,0,0,0,0,0,0,0,0,0,0,0,0,0,0,0,0,0,0,0,0,0,0,0,0,0,1.3306,1.3306,0,1.3298,1.3297,1.3297,1.3273,1.3273,1.3272,1.3272,1.3263,1.3264,1.3264,0,0,0,0,0,0,0,0,0,0,0,0,0,1.3303,1.3303,1.3306,1.3306,1.3306,1.3298,1.3297,1.3297,1.3274,1.3273,1.3272,1.3272,1.3263,1.3264,1.3264,0,0,0,0,0,0,0,0,0,0,0,0,0,1.33,1.3303,1.3306,1.3293,1.3292,1.3298,1.3297,1.3297,1.3274,1.3273,1.3272,1.3271,1.3263,1.3264,1.3264,1.3282,0,0,1.3265,1.3265,0,0,0,0,0,0,0,0,1.33,1.33,1.3295,1.3294,1.3293,1.3286,1.3293,1.3292,1.3274,1.3281,1.3272,1.3271,1.3272,1.3271,1.3271,1.3281,1.3281,1.3265,1.3265,1.3266,1.3266,0,0,0,0,0,0,0,1.3301,1.3301,1.3303,1.3295,1.3293,1.3288,1.3287,1.3293,1.328,1.328,1.3278,1.3277,1.3271,1.3271,1.3271,1.3281,1.3265,1.3266,1.3266,1.3266,1.3306,1.3307,0,0,0,0,0,0,1.3302,1.3301,1.3303,1.3302,1.3295,1.3289,1.3287,1.3289,1.328,1.3278,1.3278,1.3276,1.3271,1.327,1.327,1.3291,1.3266,1.3266,1.3266,1.3305,1.3306,1.3307,0,0,0,0,0,0,1.3303,1.3303,1.3303,1.3301,1.3301,1.3289,1.3291,1.3289,1.3289,1.3279,1.3277,1.3281,1.327,1.327,1.3279,1.3291,1.3266,1.3266,1.3304,1.3306,1.3307,1.3333,0,0,0,0,0,0,1.3303,1.3303,1.3309,1.3301,1.3301,1.3312,1.3292,1.3289,1.329,1.3288,1.3281,1.3279,1.3269,1.3279,1.328,1.3291,1.3267,1.3303,1.3305,1.3306,1.3331,1.3335,1.3338,0,0,0,0,0,1.3302,1.3317,1.331,1.331,1.3309,1.3313,1.3313,1.3301,1.3291,1.3297,1.3291,1.3279,1.3289,1.328,1.3281,1.3292,1.3302,1.3304,1.3306,1.3329,1.3334,1.3338,0,0,0,0,0,0,1.3327,1.3316,1.3308,1.332,1.3318,1.3309,1.3317,1.3307,1.3307,1.3305,1.3291,1.329,1.3301,1.3297,1.3287,1.3309,1.3294,1.3296,1.3311,1.3316,1.3319,1.332,1.3267,0,0,0,0,0,1.3333,1.3337,1.3328,1.334,1.3339,1.3328,1.3329,1.3321,1.3318,1.3317,1.3311,1.3308,1.3311,1.3313,1.3315,1.333,1.3329,1.3338,1.3342,1.3345,1.3347,1.3355,1.336,1.3313,1.3313,1.3313,0,0,1.3347,1.3342,1.3345,1.3344,1.3341,1.3346,1.3327,1.3333,1.3337,1.3318,1.3326,1.3322,1.3318,1.3331,1.3336,1.3328,1.336,1.3348,1.335,1.335,1.3358,1.3362,1.3366,1.3315,1.3314,1.3314,0,0,1.3375,1.3371,1.3381,1.3379,1.3375,1.3368,1.337,1.3363,1.3359,1.3368,1.3354,1.3358,1.3363,1.3361,1.3361,1.3389,1.3378,1.339,1.3409,1.3417,1.3421,1.3424,1.3434,1.3438,1.3392,1.3392,1.3392,0,1.3393,1.34,1.3387,1.3394,1.3394,1.3378,1.3388,1.3386,1.3383,1.3384,1.3375,1.3381,1.3377,1.3389,1.3396,1.3397,1.3399,1.3391,1.3421,1.3424,1.3427,1.3437,1.3441,1.3394,1.3393,1.3393,1.3393,0,1.3422,1.3427,1.3435,1.3433,1.3434,1.3442,1.3432,1.3435,1.3426,1.342,1.343,1.3425,1.3426,1.3428,1.342,1.3439,1.3434,1.3424,1.3408,1.3433,1.3442,1.3446,1.3396,1.3395,1.3395,1.3394,0,0,1.3464,1.3456,1.3459,1.3458,1.3453,1.3456,1.3464,1.3465,1.3468,1.3466,1.3473,1.3478,1.3468,1.3468,1.3459,1.3467,1.349,1.3455,1.3455,1.3462,1.3512,1.352,1.3524,1.3483,1.3484,1.3484,1.3512,0,1.3491,1.3504,1.3494,1.3509,1.3513,1.3498,1.3505,1.3503,1.3497,1.3501,1.3495,1.3499,1.3485,1.3485,1.3492,1.3486,1.35,1.3484,1.3489,1.3489,1.3491,1.3529,1.3538,1.3564,1.3515,1.3516,1.3516,0,1.3524,1.3524,1.354,1.3534,1.3535,1.3542,1.3542,1.3546,1.3543,1.3539,1.3539,1.3529,1.3536,1.3521,1.3532,1.3521,1.3523,1.3521,1.3521,1.3521,1.3505,1.353,1.3572,1.3576,1.3522,1.3521,1.3521,0,1.3554,1.3558,1.3568,1.3567,1.3561,1.3566,1.3563,1.356,1.3561,1.3562,1.3563,1.3564,1.3565,1.3566,1.3557,1.3547,1.3569,1.3553,1.3566,1.3566,1.3571,1.3571,1.3614,1.3573,1.3572,1.3572,1.3572,0,1.3585,1.3595,1.3581,1.3587,1.3599,1.3587,1.3598,1.3594,1.3591,1.3597,1.3583,1.3589,1.3576,1.358,1.3573,1.3583,1.3584,1.3581,1.3579,1.3582,1.3582,1.3583,1.3581,1.3573,1.3573,1.3573,1.3573,0,1.362,1.3611,1.3621,1.3614,1.3613,1.3621,1.3616,1.3621,1.3615,1.3622,1.3623,1.3614,1.3618,1.3609,1.3612,1.3607,1.3622,1.3617,1.3623,1.3622,1.3635,1.3634,1.368,1.3686,1.364,1.3641,1.3641,0,1.364,1.3648,1.3642,1.3644,1.3643,1.3647,1.3649,1.3638,1.364,1.3638,1.3644,1.3647,1.3649,1.3657,1.365,1.3653,1.3648,1.3664,1.3648,1.3651,1.3648,1.3648,1.3649,1.3667,1.3667,1.3668,1.3668,0,1.3677,1.3673,1.3675,1.3677,1.3679,1.368,1.3679,1.3682,1.3671,1.3674,1.3678,1.368,1.3683,1.3687,1.3688,1.3685,1.3675,1.3673,1.3677,1.368,1.3683,1.3682,1.3632,1.3672,1.3672,1.3672,1.3671,1.3671,1.3706,1.3712,1.3709,1.3713,1.3711,1.3711,1.3717,1.3712,1.3715,1.3717,1.371,1.3716,1.3714,1.3714,1.3713,1.3717,1.371,1.3715,1.3716,1.3717,1.372,1.3683,1.3718,1.3717,1.3717,1.3717,1.3717,0,1.3742,1.374,1.3743,1.3744,1.3747,1.3737,1.3736,1.3739,1.3745,1.3743,1.3746,1.3751,1.3755,1.3749,1.3751,1.3756,1.3752,1.3757,1.3757,1.3757,1.3726,1.3723,1.3761,1.3761,1.3761,1.3761,1.3761,1.3761,1.3762,1.3772,1.3767,1.3777,1.3774,1.378,1.3781,1.3781,1.378,1.3786,1.3789,1.3785,1.3782,1.3785,1.3788,1.3786,1.3788,1.3795,1.3792,1.3763,1.3759,1.3755,1.3752,1.3795,1.3796,1.3822,1.3822,1.3823]},{"header":{"parameterUnit":"m.s-1","parameterCategory":1,"la1":30.2991,"la2":30.254,"lo1":-89.0895,"lo2":-89.0444,"dy":0.0017,"dx":0.0017,"nx":28,"ny":28,"refTime":"2023-08-02T03:00:00:Z","depth":0,"parameterNumber":3,"parameterNumberName":"V-component_of_WINDS"},"data":[0,0,0,0,0,0,0,0,0,0,0,0,0,0,0,0,0,0,0,0,0,0,0,0,0,0,0,0,0,0,0,0,0,0,0,0,0,0,0,0,0,0,0,0,0,0,0,0,0,0,0,0,0,0,0,0,0,0,0.6298,0.6298,0,0.6312,0.6312,0.6312,0.6339,0.634,0.634,0.6341,0.6355,0.6355,0.6355,0,0,0,0,0,0,0,0,0,0,0,0,0,0.6295,0.6295,0.6298,0.6298,0.6298,0.6312,0.6312,0.6312,0.6339,0.634,0.634,0.6341,0.6355,0.6355,0.6355,0,0,0,0,0,0,0,0,0,0,0,0,0,0.6301,0.6295,0.6298,0.6313,0.6315,0.6312,0.6312,0.6312,0.6339,0.634,0.6341,0.6341,0.6355,0.6355,0.6355,0.6338,0,0,0.6355,0.6355,0,0,0,0,0,0,0,0,0.6301,0.6301,0.6311,0.6312,0.6314,0.6325,0.6316,0.6321,0.6339,0.633,0.6341,0.6342,0.6345,0.6345,0.6346,0.6339,0.634,0.6355,0.6355,0.6354,0.6354,0,0,0,0,0,0,0,0.63,0.6301,0.6304,0.6311,0.6313,0.632,0.6321,0.6317,0.6333,0.6331,0.6333,0.6334,0.6346,0.6346,0.6347,0.634,0.6355,0.6354,0.6354,0.6354,0.6319,0.6318,0,0,0,0,0,0,0.6298,0.63,0.6303,0.6304,0.6309,0.6319,0.6321,0.632,0.6333,0.6335,0.6333,0.6335,0.6346,0.6347,0.6347,0.6328,0.6354,0.6354,0.6354,0.6319,0.6318,0.6317,0,0,0,0,0,0,0.6297,0.6298,0.6303,0.6303,0.6304,0.6318,0.6317,0.632,0.6321,0.6335,0.6338,0.6331,0.6347,0.6348,0.634,0.6329,0.6354,0.6354,0.632,0.6319,0.6318,0.6289,0,0,0,0,0,0,0.6297,0.6297,0.6291,0.6302,0.6304,0.6295,0.6317,0.632,0.6321,0.6323,0.6333,0.6336,0.6347,0.634,0.634,0.6329,0.6354,0.6322,0.632,0.6318,0.6291,0.6286,0.6283,0,0,0,0,0,0.6297,0.6283,0.6291,0.6291,0.6296,0.6294,0.6295,0.6309,0.632,0.6313,0.6322,0.6336,0.633,0.6339,0.6339,0.6328,0.6322,0.632,0.6318,0.6292,0.6287,0.6283,0,0,0,0,0,0,0.627,0.6284,0.6293,0.6282,0.6287,0.6299,0.6292,0.6303,0.6305,0.6307,0.6324,0.6326,0.6316,0.6321,0.6331,0.6312,0.6328,0.6326,0.6308,0.6304,0.63,0.6298,0.6354,0,0,0,0,0,0.6263,0.626,0.6273,0.6262,0.6263,0.6277,0.6277,0.6287,0.6292,0.6294,0.6302,0.6307,0.6306,0.6305,0.6306,0.6292,0.6294,0.6284,0.628,0.6277,0.6275,0.6267,0.6262,0.6311,0.6311,0.6311,0,0,0.6248,0.6255,0.6252,0.6256,0.6261,0.6258,0.6278,0.6274,0.6272,0.6294,0.6287,0.6293,0.6299,0.6288,0.6284,0.6292,0.6262,0.6274,0.6272,0.6271,0.6264,0.626,0.6255,0.631,0.631,0.631,0,0,0.6218,0.6224,0.6215,0.6219,0.6226,0.6235,0.6233,0.6243,0.6247,0.6241,0.6257,0.6254,0.6253,0.6257,0.6258,0.623,0.6242,0.6229,0.6209,0.6201,0.6197,0.6194,0.6182,0.6178,0.6227,0.6227,0.6227,0,0.6199,0.6194,0.6209,0.6203,0.6204,0.6224,0.6214,0.6218,0.6224,0.6224,0.6234,0.6232,0.6238,0.6227,0.622,0.6221,0.6219,0.6228,0.6196,0.6193,0.619,0.618,0.6176,0.6225,0.6226,0.6226,0.6226,0,0.6169,0.6166,0.6158,0.6163,0.6163,0.6156,0.6169,0.6167,0.6177,0.6185,0.6178,0.6185,0.6187,0.6185,0.6195,0.6176,0.6181,0.6193,0.621,0.6184,0.6174,0.617,0.6223,0.6224,0.6224,0.6225,0,0,0.6123,0.6136,0.6133,0.6135,0.6144,0.6141,0.6135,0.6136,0.6134,0.6138,0.6132,0.613,0.6141,0.6143,0.6153,0.6146,0.6122,0.6159,0.616,0.6151,0.61,0.609,0.6086,0.613,0.613,0.6129,0.6099,0,0.6095,0.6084,0.6097,0.6083,0.608,0.6098,0.6092,0.6096,0.6104,0.6102,0.611,0.6108,0.6123,0.6124,0.6118,0.6126,0.6112,0.6129,0.6125,0.6124,0.6122,0.6081,0.607,0.6042,0.6096,0.6095,0.6095,0,0.6061,0.6062,0.6048,0.6057,0.6056,0.605,0.6052,0.605,0.6055,0.6061,0.6062,0.6075,0.6068,0.6085,0.6076,0.6087,0.6087,0.609,0.609,0.6089,0.6107,0.6078,0.6033,0.6029,0.6089,0.609,0.609,0,0.6027,0.6026,0.6017,0.6018,0.6029,0.6024,0.6028,0.6034,0.6034,0.6036,0.6035,0.6036,0.6037,0.6037,0.6049,0.606,0.6038,0.6056,0.6042,0.6042,0.6036,0.6036,0.599,0.6037,0.6037,0.6037,0.6038,0,0.5994,0.5984,0.6002,0.5996,0.5985,0.6,0.599,0.5996,0.6001,0.5996,0.6013,0.6008,0.6025,0.6022,0.6032,0.6022,0.6023,0.6027,0.6029,0.6025,0.6024,0.6024,0.6026,0.6036,0.6037,0.6037,0.6037,0,0.5954,0.5966,0.5957,0.5967,0.597,0.5961,0.597,0.5965,0.5973,0.5968,0.5967,0.598,0.5977,0.599,0.5989,0.5996,0.5981,0.5988,0.5979,0.5981,0.5966,0.5967,0.5917,0.5911,0.5963,0.5962,0.5962,0,0.5932,0.5925,0.5934,0.5932,0.5935,0.5932,0.5932,0.5946,0.5945,0.595,0.5944,0.5943,0.5943,0.5938,0.5947,0.5947,0.5953,0.5935,0.5953,0.5948,0.5951,0.5951,0.595,0.5931,0.5931,0.593,0.593,0,0.589,0.5896,0.5895,0.5895,0.5894,0.5896,0.5898,0.5896,0.5911,0.5909,0.5906,0.5906,0.5906,0.5904,0.5905,0.591,0.5922,0.5924,0.5921,0.5916,0.5911,0.5912,0.5968,0.5925,0.5926,0.5926,0.5926,0.5926,0.5858,0.5852,0.5858,0.5855,0.5859,0.586,0.5856,0.5863,0.5861,0.5862,0.5871,0.5866,0.5871,0.5874,0.5877,0.5874,0.5882,0.5877,0.5876,0.5874,0.5871,0.5912,0.5874,0.5874,0.5875,0.5875,0.5875,0,0.5816,0.5821,0.5819,0.5821,0.5819,0.5831,0.5834,0.5832,0.5828,0.5831,0.5831,0.5827,0.5826,0.5834,0.5834,0.5829,0.5835,0.5829,0.5829,0.5829,0.5864,0.5867,0.5824,0.5824,0.5824,0.5824,0.5824,0.5824,0.5795,0.5785,0.5791,0.5783,0.5788,0.5784,0.5784,0.5785,0.5788,0.5784,0.5782,0.5788,0.5794,0.5794,0.5792,0.5795,0.5794,0.5785,0.579,0.5822,0.5827,0.5832,0.5834,0.5785,0.5785,0.5755,0.5754,0.5754]}]]